DW0529 Weather Reports


time (UTC)temp
F
wind
direction
speed
knots
gust
knots
rain 1hr
in
rain 24hr
in
rain mn
in
humidity
%
barometer
mb
20260507040935 57 91 0.0 0.0 0.00 0.00 0.00 82 972.0
20260507034803 58 104 0.0 0.9 0.00 0.00 0.00 78 971.8
20260507033759 58 104 0.0 0.0 0.00 0.00 0.00 79 971.7
20260507032803 58 104 0.0 0.0 0.00 0.00 0.00 78 971.6
20260507031803 58 105 0.0 2.6 0.00 0.00 0.00 77 971.5
20260507030756 58 221 0.0 0.0 0.00 0.00 0.00 76 971.5
20260507025731 58 221 0.0 0.0 0.00 0.00 0.00 75 971.3
20260507024709 59 221 0.0 0.0 0.00 0.00 0.00 74 971.3
20260507023703 60 221 0.0 0.0 0.00 0.00 0.00 73 971.1
20260507022644 60 221 0.0 0.0 0.00 0.00 0.00 72 971.1
20260507020456 62 221 0.0 0.9 0.00 0.00 0.00 70 971.0
20260507015443 62 221 0.9 3.5 0.00 0.00 0.00 70 970.9
20260507013320 64 171 0.9 4.3 0.00 0.00 0.00 66 970.8
20260507012315 64 191 1.7 5.2 0.00 0.00 0.00 64 970.9
20260507011336 65 191 0.9 5.2 0.00 0.00 0.00 62 970.8
20260507010326 65 230 1.7 5.2 0.00 0.00 0.00 60 970.8
20260507005318 65 204 1.7 5.2 0.00 0.00 0.00 59 970.7
20260507004320 65 184 1.7 8.7 0.00 0.00 0.00 58 970.8
20260507003255 64 220 1.7 8.7 0.00 0.00 0.00 60 970.8
20260507001146 64 236 2.6 7.8 0.00 0.00 0.00 61 970.8
20260507000117 65 241 1.7 7.8 0.00 0.00 0.00 61 970.7
20260506235044 66 165 1.7 7.0 0.00 0.00 0.00 61 970.7
20260506234045 66 188 2.6 7.0 0.00 0.00 0.00 58 970.8
20260506231929 66 188 1.7 6.1 0.00 0.00 0.00 54 970.9
20260506230920 67 213 1.7 7.0 0.00 0.00 0.00 55 970.9
20260506225902 67 234 2.6 7.0 0.00 0.00 0.00 57 970.9
20260506224922 67 239 1.7 7.0 0.00 0.00 0.00 56 971.0
20260506222712 67 163 1.7 7.0 0.00 0.00 0.00 57 971.3
20260506221642 68 261 1.7 5.2 0.00 0.00 0.00 54 971.4
20260506215604 68 153 1.7 7.0 0.00 0.00 0.00 54 971.6
20260506214543 68 173 1.7 6.1 0.00 0.00 0.00 52 971.6
20260506213529 69 227 0.9 6.1 0.00 0.00 0.00 52 971.8
20260506212547 68 182 0.9 4.3 0.00 0.00 0.00 53 971.8
20260506211522 69 241 0.9 5.2 0.00 0.00 0.00 53 971.9
20260506210456 68 238 1.7 6.1 0.00 0.00 0.00 54 972.1
20260506204330 68 228 0.9 6.1 0.00 0.00 0.00 56 972.3
20260506203325 68 180 0.9 6.1 0.00 0.00 0.00 53 972.3
20260506202347 68 236 1.7 7.8 0.00 0.00 0.00 54 972.4
20260506200211 67 200 0.9 6.1 0.00 0.00 0.00 56 972.6
20260506195234 66 146 0.9 6.1 0.00 0.00 0.00 58 972.6
20260506194256 66 240 0.9 5.2 0.00 0.00 0.00 59 972.6
20260506192158 66 217 0.9 5.2 0.00 0.00 0.00 62 972.8
20260506190040 65 223 1.7 6.1 0.00 0.00 0.00 64 973.0
20260506183945 64 172 1.7 5.2 0.00 0.00 0.00 65 973.1
20260506183004 65 221 0.9 5.2 0.00 0.00 0.00 63 973.1
20260506174614 65 159 0.9 5.2 0.00 0.00 0.00 61 973.4
20260506173609 65 173 0.9 5.2 0.00 0.00 0.00 61 973.4
20260506172614 63 147 0.0 1.7 0.00 0.00 0.00 65 973.3
20260506171630 62 210 0.9 3.5 0.00 0.00 0.00 65 973.2
20260506165524 62 213 0.9 4.3 0.00 0.00 0.00 68 973.3
20260506163322 60 202 0.0 4.3 0.00 0.00 0.00 72 973.2
20260506162249 60 211 0.9 3.5 0.00 0.00 0.00 74 973.3
20260506161215 59 216 0.0 3.5 0.00 0.00 0.00 73 973.2
20260506160200 59 205 0.0 0.9 0.00 0.00 0.00 74 973.3
20260506155144 58 200 0.0 0.9 0.00 0.00 0.00 77 973.3
20260506154149 58 200 0.0 1.7 0.00 0.00 0.00 79 973.2
20260506153153 57 196 0.0 1.7 0.00 0.00 0.00 81 973.3
20260506152127 55 194 0.0 0.0 0.00 0.00 0.00 85 973.3
20260506151105 54 194 0.0 1.7 0.00 0.00 0.00 85 973.2
20260506150123 54 194 0.0 0.9 0.00 0.00 0.00 86 973.1
20260506145147 54 194 0.0 0.0 0.00 0.00 0.00 87 973.3
20260506143040 52 194 0.0 0.0 0.00 0.00 0.00 89 973.3
20260506142034 52 194 0.0 0.0 0.00 0.00 0.00 90 973.2
20260506135906 51 194 0.0 0.0 0.00 0.00 0.00 89 973.0
20260506134917 51 194 0.0 0.0 0.00 0.00 0.00 88 972.9
20260506133938 51 194 0.0 0.0 0.00 0.00 0.00 88 972.7
20260506132932 51 194 0.0 0.0 0.00 0.00 0.00 88 972.7
20260506131917 51 194 0.0 0.0 0.00 0.00 0.00 89 972.6
20260506130917 51 194 0.0 0.0 0.00 0.00 0.00 89 972.4
20260506125935 50 194 0.0 0.0 0.00 0.00 0.00 88 972.2
20260506124927 50 194 0.0 0.0 0.00 0.00 0.00 88 972.3
20260506122750 50 194 0.0 0.0 0.00 0.00 0.00 89 972.1
20260506121743 50 194 0.0 0.0 0.00 0.00 0.00 90 972.0
20260506120752 50 194 0.0 0.0 0.00 0.00 0.00 90 972.1
20260506114608 51 194 0.0 0.0 0.00 0.00 0.00 90 972.0
20260506113617 51 194 0.0 0.0 0.00 0.00 0.00 90 972.0
20260506111403 51 194 0.0 0.0 0.00 0.00 0.00 91 972.0
20260506110421 51 194 0.0 0.0 0.00 0.00 0.00 90 972.0
20260506105417 51 194 0.0 0.0 0.00 0.00 0.00 90 972.0
20260506104349 51 194 0.0 0.0 0.00 0.00 0.00 90 972.0
20260506103341 51 194 0.0 0.0 0.00 0.00 0.00 90 972.1
20260506102403 51 194 0.0 0.0 0.00 0.00 0.00 90 972.0
20260506101334 51 194 0.0 0.0 0.00 0.00 0.00 90 972.1
20260506100334 51 194 0.0 0.0 0.00 0.00 0.00 90 972.0
20260506095326 52 194 0.0 0.0 0.00 0.00 0.00 90 972.1
20260506094300 52 194 0.0 0.0 0.00 0.00 0.00 89 972.2
20260506093324 52 194 0.0 0.0 0.00 0.00 0.00 89 972.2
20260506092347 52 194 0.0 0.0 0.00 0.00 0.00 89 972.2
20260506091325 52 194 0.0 0.0 0.00 0.00 0.00 89 972.2
20260506090321 52 194 0.0 0.0 0.00 0.00 0.00 89 972.3
20260506085317 52 194 0.0 0.0 0.00 0.00 0.00 88 972.4
20260506083153 53 194 0.0 0.0 0.00 0.00 0.00 87 972.6
20260506082138 53 194 0.0 0.0 0.00 0.00 0.00 88 972.5
20260506081146 53 194 0.0 0.0 0.00 0.00 0.00 88 972.6
20260506080131 52 194 0.0 0.0 0.00 0.00 0.00 89 972.7
20260506072920 52 194 0.0 0.0 0.00 0.00 0.00 88 972.6
20260506071915 52 194 0.0 0.0 0.00 0.00 0.00 88 972.6
20260506070841 53 194 0.0 0.0 0.00 0.00 0.00 87 972.4
20260506062451 52 194 0.0 0.0 0.00 0.00 0.00 86 971.8
20260506060310 53 194 0.0 0.0 0.00 0.00 0.00 86 971.8
20260506044814 53 194 0.0 0.0 0.00 0.00 0.00 84 971.3
20260506043742 53 194 0.0 0.0 0.00 0.00 0.00 82 971.2
20260506042729 53 194 0.0 0.0 0.00 0.00 0.00 82 971.0